Tuesday, September 02, 2014
23:52 UTC
  |  Log In   |  Register Free
Airport Search:

Richmond Municipal Airport
(KRID)

Richmond Municipal Airport Diagram
No Airport Diagram Available

FAA data valid effective July 24, 2014 until September 18, 2014 (unless otherwise noted).

 
 
 
 
 
 
 
 
 
 
 
 
 
 

Current Aviation Weather for Richmond Municipal Airport (KRID)

The most recent METAR observation for KMWO was updated at: 2215 UTC
METAR Summary (Translated METAR)
KMWO
022215Z AUTO 32004KT 10SM SCT029 27/18 A2994 RMK AO2 T02650184
KMGY
(8.6 nm NE from KMWO)
022153Z AUTO 24006KT 10SM FEW024 25/19 A2994 RMK AO2 SLP129 T02500194
TAF
No TAF information found within 50 nm of KMWO
  Airport Weather Conditions for KRID

Current weather conditions are
not available for RID


The nearest NOAA weather station
is at MWO, (24.7 nm SE from RID)
  
 Current Weather at MWO
80° F
Partly Cloudy
West winds at 5.8 mph
MWO NOAA Radar

Pressure: 29.94 in
Humidity: 63%
Wind: West at 5.8 MPH (5 KT)
Dew Point: 66.0°F
Visibility: 10.00 mi


Airport Weather Forecast for KRID

Translated METAR and TAF for KMWO
Translated METAR for KMWO (2345 UTC 02 September 2014)
found at http://aviationweather.gov/adds/metars/
 
METAR text: KMWO 022335Z AUTO 00000KT 10SM CLR 25/19 A2995 RMK AO2 T02510192
Conditions at: KMWO (MIDDLETOWN/HOOK , OH, US) observed 2335 UTC 02 September 2014
Temperature: 25.1°C (77°F)
Dewpoint: 19.2°C (67°F) [RH = 70%]
Pressure (altimeter): 29.95 inches Hg (1014.3 mb)
Winds: calm
Visibility: 10 or more miles (16+ km)
Ceiling: at least 12,000 feet AGL
Clouds: sky clear below 12,000 feet AGL
Weather: automated observation with no human augmentation;
there may or may not be significant weather present at this time
Translated TAF for KMWO

There is no translated TAF available for this airport

Find All Airport Services Find A Hotel Find A Rental Car Find A Golf Course Find A Restaurant $100 Hamburger



FBO's on the Field
FBO Company Facility Photos Services Transportation Aviation Fuel Prices: Prices include tax
Catering Weather Repair Courtesy Rental Type 100LL JetA JetA+ MOGAS 8087
 
Richmond Municipal Airport

This FBO has not yet been rated
FS:Phillips66
Last Updated: Aug-27
Login to update fuel prices
SS:
Contact Richmond Municipal AirportMore FBO Information
 
Add another FBO Facility Photos Catering Weather Repair Courtesy Rental Type 100LL JetA JetA+ MOGAS 8087
Services Transportation Aviation Fuel Prices: Prices include tax


GlobalAir.com Airport Resource Center model-print
model-print
model-print
model-print